Theta_e
307 306 306 306 305 305 305 305 305 305 306 306 306 306 306 307 307 308 308 308 308 307 308 308 308 308 309 309 310 311 311 311 312 312 314 317 316 316 317 315 313 313 313 313 313 313 313 314 314 313 318 319 316 317 316 318 325 334 336 326 316 317 320 322 327 325 319 320 322 319 316 315 317 318 314 311 315 318 317 316 316 313 311 312 312 311 311 311
307 306 306 307 306 306 306 306 306 306 306 307 308 308 308 308 308 309 309 309 308 308 308 308 308 308 309 310 311 312 312 312 312 311 315 319 317 316 317 314 312 313 313 313 313 313 315 316 313 314 322 320 315 318 320 316 323 339 332 317 323 330 325 323 328 325 319 317 318 318 315 314 314 314 313 313 318 320 318 316 315 315 315 312 310 310 310 310
307 307 307 307 307 307 307 307 308 307 308 308 308 309 310 309 310 309 310 310 309 308 309 308 309 309 310 311 313 314 312 311 312 314 318 319 317 316 315 313 312 312 312 313 313 313 315 316 312 316 324 321 316 321 325 319 320 329 325 319 334 336 325 323 325 322 319 316 317 319 314 313 315 313 312 314 317 318 317 317 316 316 315 314 311 307 307 308
307 307 307 308 307 308 308 308 309 309 309 309 309 310 310 310 311 311 312 312 309 309 310 309 310 311 312 313 314 315 312 313 314 315 317 317 316 315 314 313 313 312 313 313 313 314 314 313 312 318 322 320 320 320 321 320 318 318 321 327 331 324 319 323 324 324 321 315 315 317 315 316 316 313 314 314 315 317 315 315 316 314 313 313 311 304 303 305
307 306 306 307 308 308 308 309 310 309 308 310 310 311 311 312 311 311 312 313 311 311 312 312 313 313 314 315 316 315 314 317 315 313 315 316 315 314 313 313 313 313 313 314 315 314 314 312 314 321 321 318 320 318 317 319 317 318 323 327 326 320 318 321 324 323 318 314 314 317 316 315 314 313 315 315 315 316 314 313 313 311 309 310 309 304 303 303
307 306 306 307 308 308 308 310 310 308 309 310 311 311 313 313 312 311 313 314 313 313 314 314 315 315 315 315 316 316 313 315 313 313 316 314 313 313 313 313 313 313 312 315 315 314 315 314 316 322 321 317 317 314 314 316 315 319 323 322 324 320 318 320 321 319 315 315 316 317 314 312 313 314 315 315 315 315 313 312 310 308 305 304 305 304 304 304
309 308 307 307 308 308 309 310 310 309 311 312 312 313 314 314 315 314 314 315 315 315 315 315 315 315 315 315 317 318 317 315 314 316 318 315 313 313 313 313 313 313 313 314 314 316 317 316 317 320 320 316 315 314 313 314 315 319 323 324 321 317 319 322 321 319 316 315 316 314 311 311 315 314 313 314 313 313 311 307 304 303 302 303 303 302 302 302
310 310 309 308 308 309 309 309 310 311 313 314 314 314 315 315 317 316 315 316 316 315 315 315 315 314 315 315 317 323 322 319 316 317 320 318 315 314 314 314 313 313 312 313 314 316 316 316 316 316 316 314 313 315 313 313 317 320 323 324 319 317 321 321 318 318 316 314 313 311 313 313 313 312 313 313 311 310 307 302 302 303 303 302 302 301 300 299
310 311 311 310 310 310 310 310 311 313 314 315 315 316 316 316 317 316 316 317 315 315 315 314 315 314 314 314 317 323 322 319 318 318 319 319 318 316 314 314 313 313 312 312 313 313 314 316 316 314 315 315 312 314 314 314 319 320 321 321 317 315 317 315 315 316 315 314 312 311 315 314 310 311 313 312 310 308 305 304 305 305 304 301 300 300 299 298
312 313 313 313 312 310 311 311 313 314 315 315 316 316 316 317 318 317 317 317 316 316 315 315 315 314 314 314 318 321 319 321 323 320 320 319 318 316 314 314 313 313 312 313 313 312 313 315 313 312 315 316 312 313 314 314 315 317 319 318 316 315 315 314 315 314 313 313 312 312 315 314 309 312 315 311 308 306 309 309 305 304 303 300 300 299 298 298
313 314 314 313 313 311 312 313 313 315 316 316 316 317 317 318 318 318 319 318 318 317 317 316 315 314 314 314 320 322 318 321 323 321 320 319 317 315 314 314 313 313 313 313 313 312 313 313 309 310 314 315 313 313 313 313 313 313 314 315 317 317 315 315 315 313 311 312 313 312 314 313 309 313 315 310 306 308 313 312 305 305 302 300 300 298 298 297
315 315 315 314 313 311 312 314 314 315 317 317 318 318 318 319 319 320 320 319 319 318 317 316 314 314 313 314 319 319 316 319 321 319 319 318 317 315 314 314 314 313 313 313 314 314 314 313 311 314 315 313 315 314 313 312 312 313 313 314 318 319 317 315 314 313 312 313 314 313 315 317 316 315 312 308 307 309 313 310 306 304 301 300 300 298 297 297
315 315 316 314 313 312 313 314 315 316 317 318 319 320 320 320 320 320 320 319 319 317 316 314 313 314 313 316 317 314 315 318 319 319 317 317 315 315 316 316 315 314 314 314 314 314 315 313 313 315 315 316 318 313 313 314 312 313 313 313 316 318 320 314 310 313 313 313 313 312 317 325 328 319 310 308 308 310 313 308 305 304 301 300 299 298 298 296
314 314 315 314 313 313 314 315 316 317 317 318 320 321 321 320 320 321 320 319 317 315 314 312 313 313 313 317 315 312 315 315 316 318 316 315 315 315 316 315 316 316 315 314 314 314 314 313 312 313 312 315 315 309 316 322 319 315 311 317 320 316 325 322 311 314 313 312 311 312 319 325 327 319 308 307 307 310 315 308 305 304 300 300 299 298 297 296
316 315 315 314 313 314 315 315 316 316 317 319 320 321 321 321 321 320 319 316 314 313 312 312 313 313 315 317 313 313 315 314 316 318 316 316 315 316 316 315 316 315 315 313 313 313 312 312 314 316 313 311 313 315 321 325 328 324 313 324 327 317 326 327 314 314 314 311 310 313 319 320 322 318 307 306 308 313 316 308 304 303 300 299 298 297 297 296
316 316 315 314 314 315 316 316 316 316 317 319 321 322 321 321 321 319 317 313 312 312 312 313 313 313 317 317 313 313 314 315 317 317 318 317 316 317 315 315 314 314 314 312 312 312 311 314 313 313 314 312 317 328 329 324 329 328 317 322 329 320 322 322 316 316 315 312 311 313 318 318 320 318 309 306 310 315 315 307 303 301 300 299 297 297 296 296
317 316 316 315 314 315 316 316 316 316 318 320 321 322 321 321 320 318 315 313 314 315 313 314 313 313 316 314 313 315 313 314 316 317 318 317 316 316 314 313 311 311 313 311 312 312 311 314 312 311 315 315 318 326 327 323 325 328 319 317 324 320 318 320 319 317 315 316 315 314 315 315 318 316 310 306 308 315 312 304 302 300 299 298 297 297 296 295
318 317 316 315 315 315 316 315 315 317 319 320 320 322 321 320 319 316 315 315 315 315 314 313 312 315 318 314 314 315 313 313 315 316 317 317 315 314 314 311 308 309 312 312 312 312 313 315 317 318 317 314 315 319 323 325 326 329 324 320 323 320 317 320 319 316 316 317 316 315 316 317 318 314 310 305 305 310 307 301 301 300 299 298 297 297 296 295
318 317 316 315 315 316 316 316 316 317 318 319 321 321 319 317 316 315 314 314 317 320 319 317 315 320 321 315 314 314 313 313 315 315 315 316 313 312 312 309 310 313 313 314 312 313 317 318 318 319 317 315 316 316 319 322 322 325 326 327 327 323 321 320 318 317 314 314 317 316 317 319 319 315 310 305 303 305 303 300 300 299 299 298 297 297 296 295
318 317 316 316 316 316 316 316 317 318 318 319 320 319 320 321 320 319 317 316 320 321 322 321 319 320 319 315 314 313 313 313 313 314 313 313 312 311 311 309 315 317 316 320 316 312 316 318 318 319 318 318 316 314 315 318 319 319 320 323 324 322 321 318 316 318 312 313 319 316 317 320 318 315 308 304 304 303 301 301 300 299 298 298 297 297 296 295
318 317 316 315 317 317 317 317 317 319 318 319 320 319 323 325 321 321 322 322 320 315 319 320 315 317 316 312 313 313 314 314 313 313 313 312 311 312 313 313 316 317 318 322 317 311 313 317 320 318 316 316 315 312 311 314 315 315 316 317 319 319 319 315 314 315 312 313 319 316 316 319 317 314 306 303 305 304 301 301 300 299 298 298 298 297 296 296
319 318 316 316 318 319 318 317 318 318 318 319 320 319 319 319 318 317 319 326 323 314 317 317 313 316 315 311 313 312 316 318 315 313 312 312 312 312 316 317 319 320 318 317 316 315 315 318 319 316 315 315 315 313 311 312 313 313 315 314 317 318 318 319 315 314 313 313 320 319 317 318 316 309 303 302 303 301 299 300 299 298 298 298 298 297 296 296
320 318 316 318 319 319 318 318 318 318 319 319 320 319 318 317 317 315 316 325 327 319 319 320 319 320 318 314 314 313 316 319 319 316 313 312 313 314 317 317 320 322 318 317 320 320 321 323 318 313 315 315 315 316 314 314 313 315 316 316 319 318 319 325 320 316 315 312 317 318 315 317 314 307 304 302 301 300 299 299 298 298 298 297 296 296 296 296
320 318 317 318 318 318 318 318 319 319 319 319 319 320 319 318 317 315 316 322 325 322 319 318 318 322 322 317 314 315 317 318 320 317 312 313 314 314 316 317 319 321 318 317 319 320 323 323 317 314 315 315 316 317 316 316 317 319 319 317 320 319 319 324 320 317 317 315 314 314 317 324 321 315 310 304 301 301 300 299 299 298 297 296 296 296 296 295
320 319 317 317 318 318 318 319 319 319 320 319 320 321 320 319 316 314 318 324 327 324 318 314 316 321 320 314 314 316 317 319 320 317 311 312 315 315 315 316 318 321 319 316 316 318 320 318 316 318 317 315 316 318 319 319 319 323 324 319 319 320 321 321 316 316 321 321 316 312 321 334 330 321 312 306 305 303 301 301 300 298 298 297 297 297 296 295
319 318 316 316 318 318 318 320 319 319 320 320 321 322 320 318 316 314 321 328 330 326 321 318 318 319 316 313 314 316 321 320 314 311 311 311 313 314 316 315 316 320 319 316 316 319 319 315 315 319 319 317 317 320 321 319 319 324 323 319 317 316 318 319 317 318 323 323 315 310 318 330 332 326 314 306 307 304 302 302 300 299 298 298 298 297 296 296
319 318 316 317 318 319 320 320 319 319 322 323 321 321 319 317 315 314 321 331 330 325 322 319 317 317 314 311 312 320 326 321 311 310 311 311 311 312 317 317 315 316 316 317 321 321 318 316 315 317 319 320 319 322 320 317 322 326 320 319 320 318 318 320 318 319 322 321 318 318 317 320 327 323 311 306 308 305 303 303 300 299 299 298 298 297 296 296
318 317 316 317 318 320 321 320 320 320 322 323 320 320 319 317 316 316 326 336 331 322 321 318 313 312 311 308 311 319 318 315 317 314 308 309 311 311 318 321 319 318 315 319 327 321 315 317 319 317 318 319 320 324 321 316 323 324 316 316 320 319 321 322 321 321 318 315 322 326 317 316 326 322 309 307 310 309 306 304 301 300 299 299 298 297 296 295
317 317 317 318 319 320 321 321 321 320 321 320 320 320 317 315 317 322 329 334 329 320 318 316 311 310 311 310 312 314 310 311 317 314 307 309 310 311 316 319 320 318 312 317 326 321 314 314 318 320 320 322 321 320 316 317 321 316 311 316 318 317 320 322 323 323 317 315 325 327 317 317 327 325 314 309 313 315 310 304 302 301 300 300 299 297 295 295
317 317 318 319 320 321 321 321 321 322 321 320 320 318 316 318 322 328 332 332 329 320 314 313 312 312 314 314 314 313 311 312 312 311 311 312 311 311 311 312 315 317 314 317 321 319 313 309 312 317 319 321 319 313 309 314 316 311 314 323 321 318 320 321 323 321 316 322 326 322 317 316 321 327 323 315 315 316 311 305 302 301 301 300 300 298 296 295
316 317 319 319 320 321 321 321 321 322 320 319 320 317 318 323 325 332 333 328 327 321 315 315 313 313 316 318 318 314 311 312 311 313 315 312 313 314 312 312 316 321 320 319 319 317 313 311 312 315 315 315 316 312 308 309 311 313 321 326 322 322 320 319 323 320 319 328 325 315 313 314 318 327 325 317 311 308 308 306 303 302 301 300 300 299 298 296
316 317 319 319 320 321 321 322 321 322 320 319 319 319 323 327 327 333 331 325 328 324 319 319 313 314 317 317 317 313 312 314 311 314 317 315 315 315 315 317 319 325 325 321 320 318 316 317 315 312 311 313 320 318 311 310 312 317 323 324 324 325 321 322 325 321 322 324 315 312 314 314 318 322 320 318 311 304 304 304 302 301 301 300 300 299 298 296
317 317 318 318 320 321 321 322 322 323 321 318 319 321 325 329 331 332 328 327 329 321 318 320 315 315 317 315 316 312 312 315 312 313 315 314 316 315 315 316 316 324 326 319 318 319 320 321 315 312 313 314 318 320 317 317 316 317 321 324 325 325 325 327 325 318 320 318 310 310 313 315 319 317 315 314 308 301 300 301 301 300 299 299 299 299 298 296
318 316 317 318 319 320 321 322 321 322 320 317 320 323 324 329 332 331 327 327 326 320 318 318 314 314 315 317 319 314 313 315 312 313 314 313 316 317 318 315 312 320 324 318 317 319 323 325 318 316 317 315 315 317 321 322 316 315 319 320 322 326 328 327 325 323 324 320 313 309 313 321 323 314 307 305 302 298 299 298 299 300 299 298 298 298 298 297
318 317 317 318 318 320 320 321 321 321 319 318 322 325 325 329 330 330 330 326 324 322 319 316 314 314 315 316 317 314 314 316 312 313 315 315 318 319 320 317 313 318 321 319 319 317 318 324 320 315 312 313 314 316 318 320 317 314 314 316 319 323 326 322 318 320 320 319 317 313 317 322 318 307 301 301 300 298 298 297 298 300 299 298 298 298 298 297
318 318 318 318 318 319 319 320 321 320 319 320 325 326 325 327 328 329 329 324 323 321 316 316 317 316 316 316 316 313 312 315 315 314 314 315 317 317 319 320 315 314 317 320 322 317 318 323 318 312 311 311 312 314 315 317 319 314 312 319 319 315 322 322 314 310 312 318 318 316 319 318 312 308 302 300 301 299 297 298 298 299 298 298 298 298 297 297
318 317 318 318 318 319 319 319 320 319 319 322 326 327 324 325 328 328 326 321 320 317 316 321 320 318 317 317 317 316 315 317 315 314 315 315 316 316 317 320 316 312 314 319 321 320 322 326 318 312 314 310 306 311 314 312 315 317 317 320 315 311 318 322 318 316 316 320 320 316 318 318 316 315 307 301 304 303 299 299 298 298 298 298 298 297 297 296
316 316 317 318 319 319 319 319 319 318 320 323 326 327 325 325 325 326 324 320 318 316 319 325 323 319 319 318 318 317 315 317 314 314 317 316 317 318 317 319 315 312 312 313 316 318 319 323 319 311 314 312 307 313 317 311 310 316 318 315 314 317 320 319 319 322 320 321 323 318 315 316 317 317 314 310 310 306 301 299 299 298 298 298 298 297 296 295
315 316 318 317 318 319 319 319 318 318 321 325 326 326 325 324 323 324 324 321 320 320 322 326 324 322 321 319 320 318 315 317 314 314 317 316 318 317 314 317 316 312 312 311 314 318 316 320 321 312 311 313 311 314 320 316 310 311 312 310 313 317 320 320 319 320 321 321 323 320 315 318 318 316 320 320 311 304 302 300 299 298 297 297 298 297 296 296
314 317 318 314 315 318 318 318 318 319 322 324 325 325 324 323 322 323 322 321 323 322 323 327 326 325 323 319 320 320 318 318 314 314 319 317 317 317 314 317 317 314 313 311 313 318 314 317 322 315 309 312 316 317 318 318 314 313 314 314 315 314 315 319 317 316 321 323 325 322 317 320 320 314 317 318 309 302 301 300 299 298 297 297 297 297 297 296
314 319 317 311 313 316 316 318 319 320 323 324 324 324 322 322 322 321 319 320 323 322 322 327 327 326 325 321 322 321 319 319 315 315 319 316 318 320 316 317 318 314 314 312 313 317 315 316 322 320 314 316 321 316 311 314 315 314 316 316 316 316 316 318 316 316 318 319 323 323 317 319 319 309 309 312 307 301 300 300 299 298 298 298 297 297 297 296
316 320 314 309 312 314 315 319 319 320 323 322 323 323 321 321 322 321 319 319 322 322 320 324 325 325 325 324 325 322 320 322 318 318 321 318 319 320 316 316 317 314 315 317 315 316 317 318 321 321 318 319 317 309 306 310 312 313 315 315 315 316 318 320 318 317 317 315 315 317 318 318 313 305 306 307 304 302 300 300 299 299 299 298 298 298 297 296
316 316 310 309 312 313 316 320 319 319 321 318 319 320 319 320 321 320 319 319 320 321 321 322 322 323 324 323 323 322 321 322 321 320 322 320 318 317 313 315 316 315 318 319 317 316 316 318 319 319 320 319 314 309 307 308 311 314 316 314 314 316 317 318 317 317 319 318 316 316 318 317 310 304 305 303 301 302 300 300 300 300 299 299 299 299 298 296
313 311 309 309 311 312 317 320 319 320 319 316 317 318 316 318 319 319 319 320 320 321 322 322 320 322 324 321 321 323 321 322 322 320 320 320 316 312 311 313 314 315 317 317 318 317 316 319 320 319 321 321 317 314 312 311 313 316 317 314 314 317 317 315 314 315 317 317 317 316 317 316 311 306 303 302 301 302 301 299 300 300 300 300 299 299 298 297
312 312 310 309 309 311 315 317 317 319 319 317 318 318 317 317 317 318 319 320 320 321 322 321 320 321 321 319 320 322 320 322 323 319 317 319 316 311 310 311 312 314 316 316 317 316 316 320 320 318 320 321 320 319 318 317 315 314 315 314 313 315 315 315 316 316 316 315 315 315 316 315 311 306 305 303 302 303 303 301 300 301 302 302 300 299 299 299
316 316 312 310 309 310 311 312 313 317 318 317 318 317 318 318 315 315 317 319 319 319 320 319 319 319 320 319 320 321 319 319 321 320 319 319 317 312 309 308 311 312 313 313 315 316 319 320 318 318 319 319 319 318 316 318 318 315 316 316 314 313 312 315 317 317 316 315 315 315 315 314 313 309 306 306 306 306 305 303 301 302 303 302 301 300 299 299
315 316 312 311 311 311 311 311 312 315 316 317 317 316 317 318 316 315 316 317 317 318 318 318 317 319 319 318 320 321 319 318 319 319 319 318 316 312 307 307 309 310 310 311 313 317 319 318 317 319 318 317 316 315 314 316 317 316 316 316 315 312 311 313 314 315 316 316 315 315 313 314 315 313 309 308 308 307 306 305 303 302 301 300 300 300 301 300
311 312 311 311 312 311 311 311 312 313 313 314 314 313 315 316 316 316 316 315 315 317 318 316 316 318 319 318 320 319 317 318 317 316 316 316 315 313 311 310 308 308 310 310 310 314 318 317 317 317 317 316 314 312 314 315 314 314 315 316 315 312 311 312 312 312 314 315 315 314 313 313 313 312 311 309 306 307 306 304 302 301 300 299 299 301 303 302
307 309 307 308 310 310 310 311 311 312 312 312 311 311 312 314 314 315 315 315 314 315 316 316 315 316 317 317 318 317 315 317 317 314 314 314 314 313 314 315 310 306 309 311 309 311 315 316 316 315 316 316 313 310 311 312 312 312 313 314 313 311 309 310 310 310 310 312 311 309 310 311 310 310 312 308 304 305 305 302 302 301 300 301 301 303 304 303
307 307 306 307 308 308 309 311 311 311 310 309 310 310 310 311 312 312 314 315 314 313 314 315 314 314 316 316 317 315 314 316 317 316 314 313 313 313 313 316 315 308 307 310 310 310 312 314 314 312 314 315 310 308 308 308 309 311 312 312 310 308 307 307 307 307 307 308 308 307 308 309 307 308 310 307 304 304 305 304 303 301 301 302 303 304 304 303
300 299 302 307 309 306 308 310 309 309 309 309 310 310 309 310 310 311 312 313 313 313 314 314 314 314 314 314 315 313 312 314 316 316 316 315 314 313 313 315 315 312 309 309 310 311 311 311 310 310 315 315 309 306 306 305 305 307 310 311 308 307 308 306 305 306 307 308 309 308 309 309 306 305 305 304 304 304 304 303 301 300 300 301 302 302 301 300
297 296 299 307 310 306 307 309 308 308 310 310 309 309 310 310 310 311 312 311 313 313 313 314 314 313 314 314 314 313 313 314 313 310 311 312 312 312 313 312 311 313 312 309 309 310 310 310 311 311 315 314 306 303 304 304 307 310 310 310 308 307 307 305 303 304 305 307 309 309 308 307 305 304 303 303 304 302 301 301 301 300 300 298 299 299 298 298
Wind_Speed
3 3 3 4 4 3 3 3 3 4 3 3 3 3 3 2 2 2 3 3 3 4 5 6 7 8 9 10 11 12 14 14 14 11 5 2 2 5 2 1 2 1 2 3 2 2 2 4 4 6 5 3 5 3 3 3 3 5 4 3 1 2 3 5 6 6 3 3 5 4 4 1 5 6 3 2 3 3 4 5 5 5 5 6 8 12 14 15
4 4 4 4 4 3 3 3 3 4 3 3 3 3 3 2 2 2 2 3 3 4 6 6 7 7 8 9 10 13 15 15 13 8 3 1 4 5 2 2 3 3 3 2 2 2 3 1 3 6 6 3 3 3 3 2 3 4 3 2 2 5 4 5 7 5 3 2 5 4 2 1 4 4 3 4 6 6 6 7 2 4 8 7 9 11 14 14
5 5 5 5 4 3 3 3 4 4 3 3 3 2 2 2 2 2 2 3 4 5 6 7 7 7 8 9 10 13 15 13 8 3 3 3 6 5 3 3 3 4 3 2 2 2 4 3 3 5 5 3 2 3 3 3 2 2 4 2 4 6 4 4 5 6 5 1 4 5 2 1 5 3 2 3 7 7 5 6 3 4 7 8 9 12 16 15
6 6 6 5 5 3 3 3 2 2 2 2 3 3 2 2 2 2 3 4 4 5 6 7 7 7 8 9 9 12 12 8 3 0 3 4 6 5 3 3 3 4 2 2 3 3 5 5 6 5 4 3 4 3 3 3 1 2 3 3 5 3 2 4 6 6 5 3 2 2 4 5 5 1 1 1 5 9 6 4 3 4 7 8 9 12 17 18
6 6 6 5 5 4 4 3 2 1 1 2 3 3 3 2 2 3 3 4 5 5 6 7 7 7 8 8 8 9 9 6 1 2 1 3 5 4 2 2 2 2 2 2 4 4 4 5 6 6 4 2 4 4 2 3 2 1 2 4 5 3 2 5 4 5 3 2 1 2 5 6 3 0 3 2 3 7 2 3 4 3 5 4 7 9 13 17
7 7 6 5 5 4 5 4 2 2 2 2 2 3 3 3 3 4 4 5 5 6 6 7 7 7 7 7 6 5 4 1 3 2 2 4 5 3 2 2 2 2 3 3 4 5 4 5 6 4 3 2 1 2 1 3 2 1 3 2 3 4 3 5 1 3 2 2 3 2 4 2 4 6 3 4 8 7 2 3 2 4 6 9 11 10 11 12
7 7 6 6 5 5 6 4 3 2 2 2 2 3 4 4 5 5 5 6 6 7 7 7 7 7 6 5 4 4 4 3 6 4 5 5 5 4 2 2 2 2 4 4 3 4 4 5 3 3 4 3 1 1 0 3 3 3 2 4 2 3 5 5 2 2 1 2 6 2 3 3 4 6 2 4 5 4 5 6 9 12 14 15 13 11 10 11
6 7 7 7 6 6 5 4 2 2 2 1 2 3 4 5 6 6 6 6 7 7 8 7 7 6 4 2 0 3 2 5 6 5 6 5 6 5 3 3 3 3 5 5 4 5 4 4 3 4 3 1 3 2 0 2 3 3 4 4 1 2 6 6 5 6 4 6 4 1 5 6 6 3 3 5 3 4 4 9 10 11 14 14 12 11 10 11
7 7 7 6 7 6 5 3 2 2 1 1 2 3 4 6 6 6 6 6 7 7 8 7 6 4 3 1 5 3 4 5 4 4 4 5 6 5 5 4 3 4 5 4 4 6 4 3 4 4 3 2 4 2 0 1 2 4 5 3 3 5 6 5 6 6 4 4 2 1 8 6 2 1 3 3 3 2 6 11 7 10 13 11 10 10 10 11
7 7 6 5 6 6 4 3 3 2 1 2 2 3 4 6 6 6 6 7 7 7 7 5 5 3 3 2 6 0 4 2 1 2 2 4 4 5 5 4 4 4 5 4 4 6 4 5 5 4 4 3 3 2 1 2 2 4 3 3 4 7 7 3 5 5 2 4 3 4 9 5 3 2 2 4 5 2 9 11 7 11 11 9 9 8 11 12
6 8 7 5 6 7 5 4 3 2 2 2 3 4 4 6 6 6 6 7 6 6 6 4 3 3 3 4 5 3 4 2 2 1 1 2 4 5 5 4 3 4 5 4 5 6 3 6 8 6 2 2 3 1 2 3 2 2 0 5 6 7 7 4 5 6 1 3 4 7 6 4 2 1 2 3 6 4 11 9 9 11 8 8 8 8 10 12
7 9 8 6 7 7 5 5 4 3 2 2 3 4 4 6 6 6 6 6 7 6 6 3 3 4 3 2 4 7 5 3 3 1 1 2 3 5 4 4 3 4 5 3 4 6 3 7 9 5 1 3 2 1 2 2 2 1 3 4 8 8 7 6 4 3 0 1 4 6 3 4 2 4 1 4 4 7 11 8 8 9 7 8 7 7 8 11
9 10 9 7 7 7 6 5 4 3 2 3 4 4 4 5 6 6 6 6 7 6 5 3 4 6 3 1 5 9 9 6 5 3 2 3 4 5 4 4 4 3 3 3 4 5 5 7 9 5 2 5 1 1 2 3 3 2 3 2 6 7 6 5 2 3 3 0 2 3 3 5 7 7 2 5 3 7 9 8 7 7 7 7 7 7 7 12
9 10 9 8 7 7 6 5 5 3 3 3 4 4 5 5 6 6 6 6 6 5 4 1 4 6 3 3 4 5 9 9 8 6 4 6 7 6 5 4 3 3 3 5 6 5 5 7 7 5 2 3 1 1 4 6 3 2 2 2 3 2 5 6 1 1 2 1 2 3 2 6 9 6 3 5 3 7 8 7 7 7 7 6 6 7 6 10
10 10 9 8 7 6 6 6 4 2 4 4 4 4 5 5 6 6 5 5 3 2 1 2 6 6 2 5 5 4 6 6 7 8 7 8 7 5 4 5 5 5 6 7 7 7 7 7 7 4 1 2 3 3 3 5 4 3 1 3 3 1 5 9 3 1 1 2 5 4 2 6 9 5 3 6 6 10 9 7 7 7 7 7 6 7 6 8
9 9 8 7 7 7 7 6 3 3 4 4 4 4 5 5 5 4 2 2 2 3 3 3 6 5 1 3 2 2 5 4 6 8 9 9 6 4 6 7 6 7 7 6 7 7 7 6 4 2 1 2 4 4 3 4 4 3 0 3 3 2 3 7 3 1 1 1 4 3 2 4 7 6 5 10 9 10 9 7 7 7 7 7 6 6 6 7
8 8 9 9 8 8 8 5 2 4 3 3 4 4 5 4 3 1 1 3 4 4 4 4 5 3 1 2 1 2 3 4 5 7 10 8 5 6 8 7 5 7 7 6 5 4 5 4 1 0 2 3 3 5 3 2 4 3 1 2 4 3 2 4 3 4 5 3 3 3 1 5 9 7 7 12 9 9 9 7 7 6 6 6 5 6 6 7
9 9 10 9 9 9 8 5 4 4 2 4 5 4 3 2 1 2 4 4 4 5 3 2 3 1 3 2 2 2 1 3 5 7 8 6 5 7 7 5 5 7 6 4 3 2 3 3 2 1 3 2 3 5 3 5 5 4 2 3 3 3 3 4 4 3 6 6 4 2 2 8 12 8 7 10 8 9 9 6 6 6 6 5 6 6 6 7
10 10 9 10 10 10 9 5 5 2 2 5 4 2 1 1 1 3 4 4 2 2 1 3 3 2 3 2 1 2 5 6 6 6 7 7 8 8 7 6 7 7 5 2 1 1 1 3 3 1 1 2 5 7 9 8 7 6 5 4 4 3 4 5 5 4 1 3 4 4 5 7 10 7 7 7 7 9 7 6 6 5 5 5 5 6 6 7
11 10 10 11 11 10 8 6 4 1 4 5 2 1 1 1 1 2 2 2 5 5 3 5 5 2 2 1 2 5 6 5 3 4 7 9 10 9 6 4 6 5 3 4 2 1 3 3 2 5 6 7 9 10 7 3 5 5 3 3 4 4 5 4 4 5 0 0 5 4 4 7 7 5 7 5 5 8 6 6 6 4 5 5 5 5 5 5
12 11 11 12 12 10 8 6 4 1 5 5 1 1 2 3 1 2 2 3 8 9 6 6 6 5 4 2 5 8 4 2 2 3 9 9 9 8 1 2 4 1 1 3 3 2 3 4 7 9 8 7 7 7 4 1 3 3 2 2 3 4 6 5 3 5 2 2 4 1 2 8 5 4 6 5 6 7 4 5 5 5 5 4 5 5 4 3
14 13 12 13 13 12 8 5 3 1 6 5 2 2 2 2 1 0 0 3 8 8 8 6 3 6 6 3 6 6 2 1 1 1 9 8 5 5 1 4 5 3 1 2 3 2 2 4 11 9 5 5 2 4 5 4 3 2 2 1 4 3 4 6 3 4 3 2 4 4 4 6 2 5 5 6 6 5 4 4 4 4 5 4 4 4 4 4
16 14 14 13 13 11 6 5 4 3 6 6 4 3 2 0 1 1 2 0 6 4 4 5 4 6 6 4 7 7 2 4 3 4 10 9 3 4 4 4 4 3 2 4 4 3 2 6 10 6 6 6 1 4 6 4 2 3 3 3 4 2 0 3 3 4 3 1 2 2 4 5 1 4 5 6 4 4 5 5 5 4 5 4 3 3 4 5
18 16 16 15 13 10 6 5 4 5 8 7 7 6 3 1 3 2 1 0 4 4 4 6 5 5 6 4 8 11 5 4 3 5 12 11 4 3 4 5 5 3 4 7 7 6 6 6 3 4 6 7 4 3 6 5 2 3 5 5 5 3 5 6 3 4 3 3 1 2 4 5 1 2 2 2 3 4 4 5 6 5 4 3 3 3 4 4
20 18 18 18 14 10 7 4 5 9 8 6 8 8 5 3 3 3 1 1 3 5 4 4 3 4 6 5 8 10 3 2 3 4 11 12 7 4 2 2 4 4 6 5 5 5 8 5 3 4 3 5 6 4 5 7 3 4 5 9 9 7 7 5 2 4 3 3 2 2 2 5 4 1 3 2 2 3 3 4 5 4 4 3 3 3 3 3
21 20 20 20 16 12 7 4 6 9 6 5 6 7 8 6 5 4 3 3 4 4 1 3 3 5 7 4 5 6 2 3 2 2 7 9 5 4 2 1 1 3 6 5 3 3 4 2 2 4 4 5 5 4 5 7 5 2 4 8 9 6 5 4 2 3 1 2 2 2 1 4 6 4 4 4 3 3 2 3 2 1 2 2 2 2 2 2
23 22 22 21 17 15 8 3 6 8 4 5 7 9 9 8 6 3 3 3 5 2 3 1 0 4 6 2 3 6 2 3 2 3 3 4 2 3 3 4 2 1 4 4 0 3 3 1 3 4 5 5 5 4 6 8 7 3 4 5 6 6 5 5 5 4 2 3 3 3 1 2 4 4 3 6 6 3 1 1 1 1 1 1 0 1 1 1
24 24 24 22 19 18 11 3 8 9 3 3 9 12 10 8 6 2 3 2 4 2 4 1 0 2 2 1 3 4 2 0 4 1 2 3 1 3 2 6 6 4 3 5 4 4 2 3 3 6 5 5 6 5 8 10 5 4 4 6 6 6 5 4 5 2 1 1 4 4 0 1 5 4 1 3 4 3 5 6 5 4 4 3 2 2 1 1
25 26 27 24 19 18 15 8 7 7 4 6 11 12 11 9 6 4 3 4 2 2 2 1 2 1 2 2 3 3 1 2 2 2 2 3 1 3 3 5 6 6 2 3 5 3 0 3 5 7 5 5 5 3 7 10 4 4 6 7 6 6 5 4 5 3 2 1 4 6 3 2 5 5 1 2 4 5 7 6 5 5 5 4 4 3 1 0
26 29 29 26 21 19 19 16 14 8 6 9 12 13 12 6 3 3 3 5 0 1 1 2 2 1 4 6 0 1 2 2 1 1 2 1 2 5 2 2 6 6 1 3 2 3 1 1 1 4 3 5 4 2 2 5 5 6 6 6 6 5 5 3 2 4 3 2 6 6 4 2 3 5 3 4 3 4 6 5 5 5 5 5 5 4 3 1
29 31 31 28 25 24 18 15 21 15 8 12 15 13 8 2 3 4 6 3 1 1 2 2 1 3 7 7 2 1 2 2 0 3 2 1 2 3 2 2 4 4 2 3 3 4 3 1 1 2 2 4 5 4 3 2 3 6 4 4 4 2 4 4 4 3 1 5 5 3 2 2 3 5 4 4 3 3 5 6 9 9 7 7 5 5 4 3
31 32 33 30 27 27 18 12 23 21 12 15 16 9 4 1 1 6 5 1 0 3 4 3 2 4 6 3 2 3 3 1 1 3 4 3 3 3 2 4 4 3 1 4 2 3 2 4 3 2 1 4 5 4 4 5 4 4 4 5 4 2 2 2 2 0 3 5 3 1 1 3 5 6 5 4 4 3 4 5 8 10 9 8 6 5 4 2
30 30 32 31 28 27 22 15 20 23 20 18 13 5 3 3 6 8 7 3 2 2 3 3 2 5 7 4 2 3 3 2 3 2 2 3 3 4 3 2 5 4 1 3 2 0 3 4 1 1 2 3 7 5 2 1 1 4 5 5 4 2 1 2 3 1 3 4 2 2 1 1 4 4 4 4 4 4 4 5 6 8 9 8 7 5 4 3
29 31 33 32 30 28 24 19 16 21 25 19 8 3 4 6 5 4 9 7 1 1 2 4 5 5 6 4 4 4 3 2 4 4 2 3 3 4 4 4 4 3 3 3 2 4 2 4 3 5 2 4 8 6 5 6 4 3 3 4 4 4 4 4 4 3 4 2 2 2 1 3 4 2 3 4 4 3 3 5 6 6 6 6 5 5 4 4
29 32 33 32 32 31 27 22 18 21 24 15 5 5 8 9 4 2 6 5 1 1 3 3 5 5 3 2 3 5 4 3 4 5 2 4 4 5 5 6 6 4 4 3 2 2 3 5 5 3 2 4 6 3 4 6 2 1 2 4 2 4 4 1 2 5 3 2 3 2 3 4 4 1 2 2 3 3 2 2 6 7 5 5 5 5 5 5
31 32 31 30 31 34 33 27 21 25 22 9 4 8 8 7 4 2 3 3 3 4 5 2 3 4 3 2 2 5 3 2 4 4 2 3 4 5 4 5 8 8 5 5 3 2 2 4 5 2 2 2 2 2 3 3 3 2 2 3 4 3 6 3 2 1 3 1 4 2 3 3 0 1 2 1 3 3 1 2 7 8 6 6 6 6 6 6
30 26 24 28 32 36 38 33 27 27 17 5 6 8 5 4 4 3 3 3 2 5 7 3 3 4 5 3 4 6 4 2 4 4 3 3 3 5 5 4 6 11 10 4 2 3 4 3 4 1 1 1 1 2 4 3 3 5 3 5 3 2 4 3 1 2 3 3 4 1 4 4 1 2 2 1 2 4 4 4 5 6 6 6 7 7 7 7
26 18 14 24 37 38 37 35 30 21 8 3 9 9 5 4 4 4 4 3 3 3 4 4 4 4 5 4 4 5 6 4 5 5 4 3 4 5 8 4 5 12 13 6 1 2 4 1 5 0 2 1 3 3 3 4 3 5 4 3 3 3 2 2 2 1 1 3 4 2 2 3 4 4 2 5 8 8 7 6 7 8 9 8 9 9 8 7
21 11 5 15 31 35 35 36 27 12 3 5 11 10 4 3 3 4 6 4 3 3 4 4 2 2 3 4 2 4 6 6 7 6 4 4 4 4 7 4 3 8 10 8 4 1 3 2 3 2 1 1 2 2 3 2 1 3 1 1 2 2 3 2 2 2 2 3 3 4 2 3 5 6 8 11 12 11 10 8 10 11 11 10 9 9 8 7
11 4 2 7 21 29 33 30 16 6 5 6 8 6 3 2 3 4 6 5 2 2 4 4 3 3 3 3 1 3 5 4 6 5 4 4 4 4 5 3 4 4 3 5 5 2 3 3 3 2 2 1 2 3 6 7 4 3 3 3 1 1 2 1 1 2 3 3 2 3 5 5 4 3 8 10 10 13 14 13 12 11 11 11 9 9 9 8
5 3 1 6 18 26 26 17 7 5 6 5 5 5 3 2 3 3 3 4 2 1 2 3 4 4 3 3 2 3 3 3 5 4 3 5 4 2 4 3 6 6 4 4 4 3 3 3 3 2 1 3 5 4 4 5 5 5 5 6 6 4 3 2 3 1 2 2 3 3 6 7 3 2 4 5 6 11 13 12 11 11 13 13 10 9 10 9
3 3 1 8 21 26 18 7 3 4 4 5 4 3 3 3 4 4 3 2 2 1 2 1 2 3 3 4 3 4 4 3 4 3 2 4 4 3 2 2 6 7 6 4 3 2 2 3 3 3 3 5 5 3 2 3 2 3 3 4 5 4 5 5 5 3 2 1 1 2 3 6 2 1 3 3 5 8 8 10 11 12 13 12 10 9 9 8
3 2 2 9 21 20 10 4 4 4 3 3 1 2 2 3 3 4 4 3 3 2 2 1 2 3 3 3 4 4 4 3 4 4 2 2 3 2 2 1 4 6 5 2 2 1 2 2 2 2 3 3 4 2 2 2 3 2 3 2 4 3 2 4 4 2 2 4 2 2 4 5 2 2 2 2 3 5 7 9 11 11 10 9 9 9 8 6
3 2 2 6 13 10 5 4 6 7 4 1 2 1 1 1 4 5 5 5 4 3 4 2 2 3 3 3 4 5 5 3 3 5 3 2 2 1 3 2 3 4 3 2 3 4 3 2 3 1 2 3 3 1 1 2 0 3 3 2 2 2 4 2 1 2 2 5 6 4 7 5 2 3 3 3 4 5 6 7 7 7 7 7 8 7 6 5
3 2 1 2 3 2 2 2 3 6 6 3 3 4 3 1 2 3 4 5 3 3 4 2 1 2 3 3 3 3 4 3 2 2 2 2 2 2 4 5 4 1 1 2 1 3 4 3 4 5 6 6 5 4 3 2 2 2 2 3 4 5 7 4 2 3 6 4 7 6 9 4 2 2 3 3 4 5 6 6 5 5 6 7 7 6 5 5
3 2 1 1 1 1 1 1 2 3 5 5 3 4 6 5 0 0 3 4 3 3 3 1 1 3 2 3 4 3 4 2 2 3 3 3 1 1 2 4 5 2 2 5 5 2 2 1 4 7 9 9 6 4 3 4 4 4 5 6 6 7 9 6 3 5 6 3 4 8 6 2 3 2 4 4 4 6 7 6 6 7 7 7 6 5 5 5
1 2 3 3 1 1 2 1 2 2 2 4 3 2 5 6 2 0 2 2 2 4 3 1 2 3 3 5 5 4 4 3 3 3 4 2 0 2 1 2 3 2 2 4 4 2 3 2 6 8 9 7 3 2 3 4 5 7 8 8 8 7 8 9 9 7 5 4 8 8 5 4 6 5 7 7 6 7 8 8 8 8 7 6 4 4 5 5
1 1 2 2 1 3 3 3 4 3 1 2 1 1 3 6 5 4 2 0 1 3 2 0 2 5 6 6 4 3 3 2 2 3 2 2 1 1 2 1 0 1 2 2 3 2 4 4 6 5 7 7 0 1 3 4 3 4 7 11 13 11 13 15 14 9 9 9 11 5 8 8 8 6 9 10 10 10 10 8 6 4 4 5 5 5 6 6
1 1 1 2 1 2 2 3 6 4 3 3 1 1 3 6 6 3 1 2 0 2 3 3 5 7 7 5 5 4 4 4 4 4 3 2 2 2 1 2 1 1 3 2 1 1 3 3 5 4 7 10 3 0 3 5 4 3 6 12 13 13 14 15 14 10 9 8 6 2 6 9 7 6 8 8 7 7 5 2 2 3 4 5 5 6 7 6
1 1 0 2 2 1 1 4 5 4 3 4 2 3 3 5 6 3 1 3 3 1 3 7 8 6 7 6 6 7 8 6 4 5 6 4 3 3 3 3 2 1 1 3 1 1 2 2 2 3 5 7 3 2 2 4 5 5 9 13 9 7 9 11 9 5 2 4 6 2 6 9 4 6 6 3 2 3 2 4 5 6 5 5 5 6 6 6
3 1 2 3 1 2 2 3 4 3 3 4 4 3 4 6 7 5 2 4 6 4 5 10 9 4 5 7 10 13 11 8 7 6 8 8 6 5 4 4 5 4 2 3 2 2 3 2 2 3 5 6 3 4 3 2 1 4 12 17 10 7 7 8 6 6 6 7 8 6 8 10 4 5 4 3 4 6 8 8 6 5 5 6 7 7 7 7
4 3 1 3 2 2 3 3 4 3 3 4 5 4 4 5 5 6 2 3 5 6 5 9 8 4 4 9 13 13 9 7 6 3 4 4 2 3 3 3 5 5 5 5 2 2 4 3 2 3 5 4 1 4 4 4 1 5 12 15 13 11 9 3 3 7 9 8 6 8 9 7 3 5 4 5 7 8 9 7 6 6 6 7 8 8 8 8
Wind_Direction
305 284 266 261 257 251 255 265 269 278 293 294 286 277 278 286 292 303 305 311 314 314 320 323 333 338 341 344 342 341 337 332 327 322 320 314 195 169 163 63 89 109 154 166 166 155 83 40 20 20 39 40 9 342 3 15 65 53 78 91 21 188 190 182 182 193 174 289 281 329 25 48 297 313 317 327 35 351 325 302 270 281 277 257 285 311 323 327
323 315 301 290 271 258 253 257 270 278 287 287 276 269 274 276 282 302 313 314 312 312 319 323 333 337 340 343 341 343 338 331 328 330 352 15 173 170 162 112 107 120 140 157 169 120 99 31 7 37 46 39 345 342 9 9 60 82 115 79 258 204 208 196 178 194 193 284 273 296 345 198 250 280 347 323 309 348 338 300 303 299 300 308 307 324 337 341
317 319 312 306 294 281 263 261 276 282 291 291 284 285 284 280 296 315 325 315 308 312 317 322 331 336 341 340 344 347 340 335 334 351 46 89 154 164 145 132 115 131 148 139 153 101 98 118 62 56 46 48 352 349 24 9 21 125 116 65 248 214 239 233 191 208 216 251 287 293 341 284 251 243 351 318 300 322 304 276 318 322 310 318 316 343 359 7
310 309 305 302 296 291 283 275 275 282 312 308 300 302 293 294 310 325 336 324 313 314 314 319 327 333 338 338 349 347 343 354 340 214 82 113 150 158 137 129 116 140 171 117 133 111 88 95 72 60 57 41 342 1 30 342 3 125 128 174 226 194 269 242 200 222 227 196 226 292 349 308 281 193 199 17 333 309 287 228 231 283 297 309 327 2 21 30
303 302 300 293 291 294 288 275 252 232 280 298 298 300 300 301 306 319 340 332 314 313 311 314 321 328 333 335 348 347 360 25 272 222 129 157 161 158 145 132 130 161 173 120 126 114 85 78 64 51 54 34 344 20 7 315 68 132 222 191 193 148 262 258 197 216 211 149 221 324 322 300 313 283 194 149 278 275 326 122 197 267 303 343 15 15 28 34
298 295 291 282 281 281 277 263 231 214 248 278 292 304 312 313 312 313 331 331 314 311 310 311 318 324 328 333 341 357 42 33 254 223 222 210 190 185 176 154 146 189 183 141 124 112 81 56 54 58 52 39 12 45 324 312 45 174 277 281 218 171 227 276 226 214 129 64 287 277 286 322 340 305 220 192 237 247 8 60 121 43 38 63 56 36 34 31
290 288 283 277 272 269 272 257 223 216 240 263 290 312 319 322 327 321 328 335 319 311 310 312 318 318 324 331 330 24 75 250 259 240 247 232 217 217 206 206 182 214 201 168 127 113 90 67 76 127 85 36 193 153 5 337 39 124 263 308 277 187 220 264 306 290 87 262 262 259 315 312 283 294 320 254 259 293 347 41 73 68 58 60 55 41 37 30
275 280 283 281 273 266 262 248 220 215 231 258 296 318 324 324 330 330 333 333 318 310 309 311 316 318 326 332 31 18 2 247 253 247 249 238 231 233 232 231 217 227 200 187 166 143 117 105 154 153 93 336 179 153 105 358 29 136 223 274 286 232 247 273 297 287 275 255 252 307 293 268 231 241 313 300 5 6 13 53 64 70 58 53 51 39 34 29
269 277 283 282 275 267 252 233 218 215 233 263 292 310 317 323 327 330 332 326 316 306 306 311 312 310 297 87 90 12 275 230 243 249 243 236 239 239 235 229 229 227 177 176 176 158 163 167 187 176 151 187 162 156 170 194 286 207 205 250 287 290 289 300 292 279 276 254 169 268 285 283 257 253 288 325 24 334 49 58 47 62 56 48 48 39 33 29
267 271 274 279 277 271 248 223 215 212 244 255 291 307 309 321 324 323 325 318 312 303 305 306 298 283 236 141 94 317 250 195 246 248 227 228 232 229 224 229 242 222 163 149 160 151 164 190 176 145 136 136 151 155 143 161 205 192 195 266 273 294 302 289 276 286 311 272 193 217 277 296 332 307 269 353 344 322 66 56 39 59 55 46 47 39 37 33
266 263 264 275 281 274 244 222 216 208 240 258 295 303 310 322 321 320 321 315 309 303 302 297 281 254 194 142 133 215 242 206 248 266 246 217 214 220 218 227 229 201 170 144 170 171 161 177 149 117 135 158 144 93 250 201 128 135 101 308 295 315 306 270 276 286 292 278 183 176 259 306 348 272 193 333 337 42 75 58 41 56 51 45 45 38 39 33
258 258 264 271 277 274 244 224 219 211 248 277 297 304 317 320 318 319 319 313 310 305 302 294 250 206 157 109 200 226 235 205 222 256 286 226 203 208 195 197 180 174 185 153 181 191 174 172 144 117 210 154 132 343 230 210 71 79 51 334 307 344 326 293 309 303 146 255 159 150 283 319 269 225 214 348 3 64 71 60 46 52 46 42 39 38 40 30
250 255 264 268 270 267 242 224 217 215 262 284 294 309 316 316 320 320 320 319 316 311 306 290 221 185 148 296 236 229 234 231 243 262 263 220 187 171 150 156 156 157 189 158 164 169 166 177 149 124 136 116 143 224 105 50 33 317 37 36 314 352 328 296 11 350 357 308 159 136 289 293 263 250 307 352 33 72 63 57 47 46 43 37 34 35 35 29
259 261 265 268 265 256 234 219 212 226 277 285 293 310 314 321 322 319 325 323 320 314 306 261 186 164 143 255 256 250 243 241 248 249 226 197 169 141 129 134 142 131 137 137 138 134 144 159 130 102 101 91 135 139 48 12 13 323 353 44 352 348 284 293 328 342 1 5 49 109 207 268 276 286 8 335 3 82 70 54 45 42 39 31 31 32 31 29
251 258 263 265 256 241 225 209 201 246 281 280 291 309 315 319 317 322 332 328 335 349 33 130 161 144 87 277 265 262 247 237 231 221 200 184 167 143 137 137 130 120 122 125 118 107 118 133 111 96 165 8 61 84 21 348 8 26 323 310 338 184 267 309 319 164 145 338 25 92 191 275 279 281 40 352 9 75 77 57 45 40 36 31 29 29 27 24
244 252 262 264 246 225 209 189 178 259 270 281 294 306 313 313 313 321 345 20 60 89 92 122 151 129 81 268 244 240 237 223 213 205 193 187 190 176 145 132 118 116 119 113 109 101 90 91 79 86 141 51 73 86 46 358 339 357 129 251 274 205 277 321 334 347 13 1 20 55 210 283 281 273 32 19 22 68 81 66 51 43 38 34 30 29 29 22
251 254 259 257 242 219 195 170 190 247 257 295 299 305 312 308 303 293 113 96 92 88 87 127 140 108 268 223 199 262 236 201 195 191 190 192 199 172 143 121 100 106 106 92 101 94 49 49 55 351 51 62 102 97 60 330 288 309 21 226 250 217 236 304 307 339 24 55 8 17 221 257 275 288 20 23 24 68 80 71 59 49 41 37 33 34 31 26
250 254 254 246 235 213 187 176 219 233 285 313 304 312 319 305 230 180 162 135 97 72 64 118 123 83 272 213 200 248 130 157 165 166 178 175 165 157 139 118 108 103 83 56 60 69 19 29 72 55 27 40 113 111 150 227 219 216 200 202 251 238 228 265 271 303 14 18 344 344 277 267 277 297 25 24 28 72 80 74 69 58 49 43 38 39 33 31
247 252 247 237 225 204 185 190 210 206 325 304 301 331 40 52 133 186 174 153 129 118 203 217 161 156 237 234 206 126 105 128 140 148 155 146 146 138 113 103 103 97 92 85 31 79 88 53 69 145 214 186 178 174 199 214 195 192 188 165 192 230 248 245 248 266 335 353 297 247 250 268 279 305 18 17 34 75 81 74 70 58 55 49 44 41 36 38
250 249 240 228 215 199 191 202 191 113 313 289 297 70 119 77 17 276 235 195 212 200 176 200 193 204 267 255 143 134 121 116 127 150 148 147 144 124 90 66 65 62 100 152 171 115 114 123 188 218 206 197 204 204 205 188 141 145 148 151 189 222 265 259 257 286 322 195 270 227 229 265 276 325 9 5 47 70 69 77 73 61 60 47 49 46 35 44
250 248 236 224 211 200 196 198 169 93 292 274 223 137 179 176 157 293 285 261 244 230 230 223 206 247 263 195 160 154 135 84 52 136 155 157 145 137 95 40 88 65 264 164 146 49 92 155 225 233 206 193 205 205 202 162 120 117 150 208 253 224 252 262 255 303 357 167 265 329 287 275 285 9 12 18 57 54 39 75 74 63 65 49 50 47 34 42
245 243 231 220 206 193 189 200 183 224 280 269 222 210 217 200 153 312 173 291 273 239 230 237 228 257 254 208 186 164 121 150 15 198 170 153 138 173 186 76 136 189 251 137 112 41 71 210 240 238 173 130 103 147 173 198 194 191 148 189 269 238 269 288 289 334 18 170 269 351 325 281 327 48 31 38 62 57 37 64 69 69 70 54 49 41 38 46
239 236 226 217 200 186 191 228 221 246 267 256 232 207 195 31 114 99 110 296 292 261 209 212 206 231 234 234 204 172 174 205 199 234 186 156 136 185 144 118 155 151 138 184 169 156 191 243 246 219 142 146 121 106 130 141 191 204 164 172 249 236 276 285 294 336 16 114 265 357 326 289 120 82 50 49 76 83 62 64 62 63 70 66 63 44 44 48
235 232 223 215 201 190 199 228 230 250 253 244 238 215 159 124 155 148 109 296 284 277 233 208 193 204 208 215 189 177 203 211 181 214 184 162 138 146 159 152 138 137 194 203 182 189 228 243 222 114 129 169 177 126 136 148 221 238 200 196 227 220 212 229 278 332 358 16 18 66 338 305 249 129 86 70 84 74 49 56 56 41 45 58 64 47 38 42
232 229 221 213 202 191 193 214 230 233 233 239 243 219 177 178 181 162 92 10 288 290 278 217 196 206 189 153 165 170 176 221 214 208 177 167 147 134 183 153 134 195 205 176 170 221 252 241 133 102 107 150 163 184 181 170 192 283 231 207 216 219 221 233 332 16 14 345 338 48 348 297 312 318 174 169 72 57 30 42 54 31 22 38 52 39 21 27
228 225 218 210 195 178 181 219 226 210 208 231 229 198 181 180 175 161 89 34 279 270 256 198 178 183 173 138 156 146 89 258 241 120 157 171 159 123 146 144 86 207 181 142 157 218 258 282 130 160 152 143 169 222 220 168 140 289 251 205 209 206 194 201 161 105 136 249 304 33 187 257 313 314 195 167 105 83 52 44 54 28 24 45 61 32 359 14
223 220 214 205 186 177 184 208 194 174 172 227 197 175 180 175 175 182 71 10 274 199 133 223 120 154 169 171 161 141 167 246 105 74 124 155 168 84 132 179 133 192 169 125 186 233 200 42 61 147 150 158 190 232 218 163 136 232 245 150 154 167 177 183 158 153 215 250 323 358 122 229 287 286 197 148 122 117 153 152 172 202 199 183 184 312 331 7
219 215 208 199 188 194 202 180 172 175 172 181 167 169 172 172 182 137 75 277 276 105 112 247 78 98 135 92 82 120 197 255 111 214 352 86 140 59 128 202 168 169 163 137 212 261 155 166 188 165 157 190 210 220 189 161 152 233 192 123 128 147 154 137 124 139 316 356 311 306 67 232 265 276 288 149 154 181 198 194 193 198 206 201 203 227 274 1
214 211 205 198 196 208 217 214 192 192 200 154 155 167 163 169 179 75 74 231 256 89 95 112 129 44 61 103 47 62 55 27 115 236 1 81 74 61 150 202 145 140 125 129 208 253 125 221 203 154 159 208 211 221 185 170 183 195 137 103 82 85 86 84 104 109 48 37 252 248 196 203 269 281 271 196 216 212 193 191 195 201 212 214 210 212 211 44
208 206 205 200 202 211 215 222 219 199 173 162 159 162 158 158 136 97 215 232 166 114 109 110 168 139 122 137 7 1 76 27 55 50 30 88 23 33 122 155 99 123 69 18 246 248 329 314 179 144 177 192 155 93 187 175 157 140 115 79 62 51 49 51 69 87 70 271 246 238 214 193 269 277 229 191 213 186 160 166 195 207 217 219 220 217 207 196
205 202 203 203 205 207 201 212 218 201 161 167 163 151 150 97 65 171 218 240 46 164 127 142 185 133 146 150 165 181 95 32 342 115 111 135 59 46 93 129 83 82 17 334 289 304 342 356 259 234 163 121 98 62 19 10 95 115 103 86 87 19 23 32 4 50 129 252 257 263 251 177 219 263 248 212 210 175 164 174 183 192 204 205 210 214 210 213
206 202 203 205 207 209 204 211 212 201 175 168 162 140 127 101 192 216 223 48 217 202 155 166 179 153 162 138 116 158 124 97 209 132 139 146 156 170 174 175 155 87 327 243 244 336 296 231 256 304 173 134 110 78 35 4 27 87 101 98 99 348 0 357 312 195 215 245 260 278 190 185 229 249 237 216 215 217 219 206 186 186 190 192 198 202 203 215
210 206 209 212 211 212 213 215 210 200 185 169 157 126 108 175 219 220 205 183 217 203 126 118 111 132 144 131 165 174 124 162 186 144 137 116 152 215 256 193 154 122 163 199 175 129 281 286 285 147 241 177 150 146 155 205 158 143 144 130 126 124 126 254 265 258 258 250 230 243 177 206 264 261 224 224 246 236 226 236 220 196 186 185 188 186 191 213
213 209 213 215 216 219 217 211 206 195 181 166 153 141 159 204 230 200 194 204 238 27 71 97 99 110 141 169 216 178 139 201 172 133 116 114 141 217 240 226 177 112 97 131 166 172 202 288 211 173 227 186 174 181 160 145 146 176 163 131 140 154 169 222 221 202 243 268 269 265 185 185 210 236 233 242 278 286 250 239 218 196 184 174 165 169 189 211
213 211 216 217 218 223 219 211 204 188 176 165 169 185 190 213 221 153 192 195 164 49 36 61 105 117 179 235 251 196 179 206 160 128 145 163 175 198 199 206 192 152 125 153 213 163 163 264 255 241 267 166 178 200 118 112 122 230 127 108 153 183 155 171 197 172 180 289 288 235 222 216 188 200 273 276 311 332 337 217 180 178 176 160 165 186 198 211
209 210 215 215 217 220 218 215 204 185 176 168 196 203 210 218 184 164 194 147 149 147 108 70 94 121 204 228 234 221 207 165 151 148 183 191 211 206 196 214 192 178 168 158 191 162 130 272 282 340 360 130 184 212 112 121 186 164 124 171 218 184 120 112 257 62 82 263 270 195 232 283 334 261 296 11 327 324 358 187 176 176 173 170 190 203 203 211
199 201 206 209 215 217 216 217 203 184 178 182 211 211 220 223 177 163 170 120 134 141 133 173 185 160 194 199 206 208 194 163 156 165 192 196 222 197 194 245 190 184 194 169 193 195 149 260 286 96 122 313 273 146 72 51 131 123 176 210 197 119 92 98 233 355 42 244 272 224 220 249 188 236 308 61 257 258 232 209 188 183 185 190 206 209 209 212
190 192 204 213 215 214 215 215 202 185 179 209 220 224 211 204 190 151 153 139 124 141 162 204 197 175 187 193 205 192 182 187 170 172 184 193 239 190 173 210 189 191 201 171 137 238 140 221 294 93 155 305 5 94 70 10 79 125 190 189 109 135 155 101 164 230 253 246 283 295 245 233 200 202 206 201 212 213 207 203 197 198 196 199 210 211 212 212
180 181 226 218 212 213 212 208 198 186 201 207 218 231 198 181 210 167 157 143 107 154 196 220 197 154 172 177 174 170 183 187 168 174 186 180 228 203 169 188 194 201 203 169 166 229 123 169 272 313 202 256 27 97 172 231 39 74 113 112 74 159 170 153 153 170 203 230 280 298 294 250 229 198 179 196 200 187 184 193 201 203 199 203 208 203 206 208
158 165 294 191 197 206 202 193 187 188 213 211 219 225 166 162 217 191 169 161 135 175 201 209 187 163 173 175 152 169 189 190 173 185 210 182 194 215 198 189 158 170 179 163 177 180 113 171 230 301 321 184 178 206 191 187 173 132 144 172 196 123 128 201 213 125 142 174 217 277 281 263 253 196 183 197 192 179 183 189 194 200 202 207 209 201 202 205
124 188 264 156 178 187 182 177 188 196 203 221 223 207 176 162 177 183 183 162 141 159 172 178 182 170 162 167 187 185 170 185 192 198 225 200 181 200 208 175 152 150 118 131 185 196 163 164 173 187 208 194 227 247 198 184 180 165 176 187 184 166 133 177 251 198 126 172 184 209 268 269 252 201 201 204 185 185 187 182 183 196 202 206 208 203 203 203
142 196 106 153 171 171 164 173 209 176 201 224 207 173 156 144 150 170 181 138 124 139 128 145 176 164 164 171 178 173 156 171 207 214 250 219 197 203 217 132 144 149 129 131 192 196 140 117 140 195 210 216 247 273 164 182 163 144 196 196 169 161 142 163 222 224 142 203 152 127 268 276 269 228 243 233 199 188 182 174 182 197 201 202 203 203 207 207
158 166 79 162 173 169 165 198 193 178 224 228 138 97 139 149 152 166 178 173 163 153 150 178 187 182 196 181 157 168 174 171 189 201 245 261 231 259 311 151 154 143 126 138 169 149 124 120 148 256 298 303 313 351 75 82 92 158 239 180 150 181 163 176 207 164 163 212 155 117 254 262 294 321 301 233 180 164 176 187 192 199 200 199 201 205 208 202
128 109 65 180 182 178 185 201 193 201 208 125 91 140 142 150 160 162 177 184 173 151 156 176 192 190 193 163 149 174 184 180 195 200 196 206 225 329 1 309 211 162 150 179 171 170 187 162 142 166 306 324 328 331 338 347 189 209 227 179 174 147 97 84 95 97 234 214 152 179 246 245 283 339 34 80 131 156 194 207 203 203 201 200 208 209 199 181
128 107 48 204 198 197 208 188 182 200 191 165 175 174 154 162 185 164 160 166 166 151 154 180 185 153 144 132 133 169 182 179 187 182 170 201 234 20 15 339 309 245 166 19 57 162 180 175 161 180 215 233 232 212 215 228 201 202 200 192 198 169 154 163 138 175 235 200 142 202 242 248 313 17 85 104 139 178 214 219 222 227 210 208 213 204 186 182
146 124 117 151 353 329 234 109 110 193 194 181 184 184 174 175 216 2 154 164 173 141 128 142 124 106 131 158 154 183 202 177 135 160 185 201 240 345 12 1 353 346 58 43 34 83 127 192 203 206 225 228 215 211 195 139 147 196 208 195 197 196 186 175 157 199 210 166 184 225 220 205 258 191 160 189 190 204 216 201 209 229 220 215 214 196 192 201
135 140 155 143 134 223 229 202 166 175 198 188 186 198 187 179 158 132 187 192 177 146 113 53 137 149 174 172 166 188 195 158 140 174 185 177 244 313 348 64 31 10 55 38 10 66 102 239 226 217 241 240 174 188 201 156 176 202 203 207 211 202 187 191 210 208 152 157 238 231 151 174 238 204 187 206 203 213 223 206 206 220 212 205 199 189 204 214
66 109 157 117 119 196 211 202 170 139 110 159 158 139 196 199 189 180 186 130 143 168 155 358 212 195 182 164 157 163 163 166 190 192 162 128 141 343 358 17 99 42 73 33 344 78 119 245 234 208 255 262 133 65 209 185 207 208 199 216 218 202 193 202 216 206 170 207 245 214 150 201 238 206 192 204 201 206 214 207 202 203 179 173 179 191 211 217
84 61 359 38 83 178 178 140 139 149 139 105 105 202 198 206 207 196 128 103 130 235 190 202 221 206 189 157 130 150 178 178 189 191 170 149 164 162 327 293 259 28 82 97 350 92 133 248 237 198 257 263 243 191 211 194 214 226 219 229 225 210 205 209 216 211 199 233 269 117 169 226 236 187 192 210 205 202 209 195 186 203 192 182 191 214 231 235
119 129 94 61 67 105 94 110 128 158 163 133 188 216 174 186 203 203 112 145 174 241 205 218 227 200 183 171 162 200 208 181 170 176 166 172 190 178 202 223 188 64 85 139 172 236 188 234 196 158 242 259 220 166 200 197 206 220 239 242 224 194 213 222 220 202 173 254 266 225 230 251 233 160 185 223 155 149 221 229 210 211 209 201 217 235 248 251
96 81 115 115 144 154 133 128 128 144 176 177 197 187 166 199 201 185 216 206 190 184 193 213 220 180 166 191 205 219 217 198 206 200 171 180 199 190 201 207 168 153 168 164 156 192 198 214 68 125 225 245 197 173 171 104 62 257 251 244 215 175 207 216 197 188 186 209 230 234 244 254 230 144 171 221 186 194 228 231 218 214 209 208 224 233 233 232
97 44 69 112 139 162 154 149 144 167 200 186 183 175 185 211 178 151 193 250 203 196 195 201 201 166 170 206 218 225 215 196 210 205 153 163 157 146 170 166 148 155 173 174 162 161 174 173 133 178 221 246 178 160 138 90 27 262 249 235 213 206 218 182 142 209 207 190 199 224 238 243 186 132 169 221 218 218 230 230 222 224 216 213 225 228 225 224